Stations météo

Publicité
Braemar, Grande-Bretagne (99089): Température de l'air & dewpoint: 17.10.2018 21:00:00 - 23.10.2018 21:00:00 (BST)Braemar, Grande-Bretagne (99089): Température de l'air -20cm & Température de l'air -100cm: 17.10.2018 21:00:00 - 23.10.2018 21:00:00 (BST)Braemar, Grande-Bretagne (99089): Quantités de précipitations: 17.10.2018 21:00:00 - 23.10.2018 21:00:00 (BST)
Date & Time tt [°C] td [°C] tt -20cm [°C] tt -100cm [°C] rr [mm]
23.10.2018 21:00:00 14,3 10,6 - - 0,0
23.10.2018 20:00:00 14,8 10,4 - - 0,0
23.10.2018 19:00:00 15,5 10,6 - - 0,0
23.10.2018 18:00:00 14,7 10,3 - - 0,0
23.10.2018 17:00:00 14,7 9,9 - - 0,0
23.10.2018 16:00:00 12,5 9,0 - - 0,0
23.10.2018 15:00:00 13,7 9,6 - - 0,0
23.10.2018 14:00:00 14,0 9,1 - - 0,0
23.10.2018 13:00:00 13,6 9,1 - - 0,0
23.10.2018 12:00:00 13,9 8,6 - - 0,0
23.10.2018 11:00:00 13,5 8,5 - - 0,0
23.10.2018 10:00:00 12,1 8,1 8,2 9,0 0,0
23.10.2018 09:00:00 11,1 7,4 - - 0,0
23.10.2018 08:00:00 10,8 7,1 - - 0,0
23.10.2018 07:00:00 10,4 7,2 - - 0,2
23.10.2018 06:00:00 10,4 7,6 - - 0,2
23.10.2018 05:00:00 10,8 7,5 - - 0,0
23.10.2018 04:00:00 10,9 7,4 - - 0,0
23.10.2018 03:00:00 10,7 7,5 - - 0,0
23.10.2018 02:00:00 10,6 7,3 - - 0,0
23.10.2018 01:00:00 10,4 7,1 - - 0,0
23.10.2018 00:00:00 10,1 6,8 - - 0,0
22.10.2018 23:00:00 10,0 6,2 - - 0,0
22.10.2018 22:00:00 9,9 5,1 - - 0,0
22.10.2018 21:00:00 9,7 4,7 - - 0,0
22.10.2018 20:00:00 9,4 4,3 - - 0,0
22.10.2018 19:00:00 9,1 4,2 - - 0,0
22.10.2018 18:00:00 9,2 4,1 - - 0,0
22.10.2018 17:00:00 9,6 3,2 - - 0,0
22.10.2018 16:00:00 9,7 3,9 - - 0,0
22.10.2018 15:00:00 10,0 5,2 - - 0,0
22.10.2018 14:00:00 9,4 4,8 - - 0,0
22.10.2018 13:00:00 9,6 4,8 - - 0,0
22.10.2018 12:00:00 8,8 4,2 - - 0,0
22.10.2018 11:00:00 7,9 3,2 - - 0,0
22.10.2018 10:00:00 6,5 3,0 8,4 9,0 0,0
22.10.2018 09:00:00 6,1 1,9 - - 0,0
22.10.2018 08:00:00 5,8 1,8 - - 0,0
22.10.2018 07:00:00 5,2 1,5 - - 0,0
22.10.2018 06:00:00 4,3 0,8 - - 0,0
22.10.2018 05:00:00 5,7 0,9 - - 0,0
22.10.2018 04:00:00 5,6 0,5 - - 0,0
22.10.2018 03:00:00 4,9 0,8 - - 0,0
22.10.2018 02:00:00 4,1 0,3 - - 0,0
22.10.2018 01:00:00 4,9 1,4 - - 0,0
22.10.2018 00:00:00 5,0 -0,4 - - 0,0
21.10.2018 23:00:00 4,9 -0,2 - - 0,0
21.10.2018 22:00:00 5,3 0,1 - - 0,0
21.10.2018 21:00:00 6,6 1,5 - - 0,0
21.10.2018 20:00:00 6,3 2,6 - - 0,0
21.10.2018 19:00:00 6,5 1,8 - - 0,0
21.10.2018 18:00:00 6,9 0,4 - - 0,0
21.10.2018 17:00:00 8,1 0,9 - - 0,0
21.10.2018 16:00:00 8,9 2,7 - - 0,0
21.10.2018 15:00:00 10,8 4,4 - - 0,0
21.10.2018 14:00:00 10,1 5,5 - - 0,0
21.10.2018 13:00:00 9,3 5,1 - - 0,0
21.10.2018 12:00:00 9,2 5,8 - - 0,0
21.10.2018 11:00:00 10,0 6,5 - - 0,0
21.10.2018 10:00:00 10,1 8,2 8,7 9,0 0,4
21.10.2018 09:00:00 11,0 9,9 - - 0,8
21.10.2018 08:00:00 13,4 12,1 - - 0,0
21.10.2018 07:00:00 14,6 12,0 - - 0,0
21.10.2018 06:00:00 15,1 12,1 - - 0,0
21.10.2018 05:00:00 14,7 12,1 - - 0,0
21.10.2018 04:00:00 14,6 12,1 - - 0,0
21.10.2018 03:00:00 14,6 12,0 - - 0,0
21.10.2018 02:00:00 14,6 12,0 - - 0,0
21.10.2018 01:00:00 14,3 12,0 - - 0,0
21.10.2018 00:00:00 14,6 11,9 - - 0,0
20.10.2018 23:00:00 14,8 12,0 - - 0,0
20.10.2018 22:00:00 14,5 11,9 - - 0,0
20.10.2018 21:00:00 13,9 11,6 - - 0,0
20.10.2018 20:00:00 14,3 11,7 - - 0,0
20.10.2018 19:00:00 14,2 11,5 - - 0,0
20.10.2018 18:00:00 14,2 11,4 - - 0,0
20.10.2018 17:00:00 15,0 11,1 - - 0,0
20.10.2018 16:00:00 14,7 11,2 - - 0,0
20.10.2018 15:00:00 14,1 11,0 - - 0,0
20.10.2018 14:00:00 13,9 10,6 - - 0,0
20.10.2018 13:00:00 13,7 10,3 - - 0,0
20.10.2018 12:00:00 14,0 9,8 - - 0,0
20.10.2018 11:00:00 13,1 9,8 - - 0,0
20.10.2018 10:00:00 11,5 9,6 7,7 9,2 0,0
20.10.2018 09:00:00 11,0 8,9 - - 0,0
20.10.2018 08:00:00 10,4 8,6 - - 0,0
20.10.2018 07:00:00 9,3 7,5 - - 0,0
20.10.2018 06:00:00 8,5 6,6 - - 0,0
20.10.2018 05:00:00 7,6 5,2 - - 0,0
20.10.2018 04:00:00 4,9 3,9 - - 0,0
20.10.2018 03:00:00 4,4 3,6 - - 0,0
20.10.2018 02:00:00 3,1 2,6 - - 0,0
20.10.2018 01:00:00 3,5 2,8 - - 0,0
20.10.2018 00:00:00 4,0 2,5 - - 0,0
19.10.2018 23:00:00 4,6 3,2 - - 0,0
19.10.2018 22:00:00 4,4 2,8 - - 0,0
19.10.2018 21:00:00 5,4 3,2 - - 0,0
19.10.2018 20:00:00 6,9 3,5 - - 0,0
19.10.2018 19:00:00 7,6 3,8 - - 0,0
19.10.2018 18:00:00 9,2 4,5 - - 0,0
19.10.2018 17:00:00 10,3 4,0 - - 0,0
19.10.2018 16:00:00 11,3 3,2 - - 0,0
19.10.2018 15:00:00 11,1 4,8 - - 0,0
19.10.2018 14:00:00 10,9 7,0 - - 0,0
19.10.2018 13:00:00 10,3 6,3 - - 0,0
19.10.2018 12:00:00 9,3 5,6 - - 0,0
19.10.2018 11:00:00 9,0 4,9 - - 0,0
19.10.2018 10:00:00 8,8 4,2 7,7 9,2 0,0
19.10.2018 09:00:00 7,5 3,4 - - 0,0
19.10.2018 08:00:00 7,4 3,3 - - 0,0
19.10.2018 07:00:00 7,3 3,3 - - 0,0
19.10.2018 06:00:00 6,9 2,9 - - 0,0
19.10.2018 05:00:00 6,6 3,4 - - 0,0
19.10.2018 04:00:00 6,8 3,2 - - 0,0
19.10.2018 03:00:00 6,7 3,2 - - 0,0
19.10.2018 02:00:00 6,8 2,9 - - 0,0
19.10.2018 01:00:00 7,0 2,7 - - 0,0
19.10.2018 00:00:00 6,1 3,1 - - 0,0
18.10.2018 23:00:00 6,6 3,0 - - 0,0
18.10.2018 22:00:00 7,0 2,8 - - 0,0
18.10.2018 21:00:00 7,0 3,3 - - 0,0
18.10.2018 20:00:00 6,8 3,3 - - 0,0
18.10.2018 19:00:00 7,6 3,3 - - 0,0
18.10.2018 18:00:00 8,2 3,6 - - 0,0
18.10.2018 17:00:00 8,6 3,1 - - 0,0
18.10.2018 16:00:00 9,0 3,3 - - 0,0
18.10.2018 15:00:00 8,5 3,3 - - 0,0
18.10.2018 14:00:00 8,9 3,0 - - 0,0
18.10.2018 13:00:00 9,3 2,2 - - 0,0
18.10.2018 12:00:00 5,0 3,7 - - 0,0
18.10.2018 11:00:00 1,4 0,9 - - 0,0
18.10.2018 10:00:00 0,7 0,6 8,0 9,5 0,0
18.10.2018 09:00:00 -2,8 -2,9 - - 0,0
18.10.2018 08:00:00 -3,0 -3,1 - - 0,0
18.10.2018 07:00:00 -3,4 -3,8 - - 0,0
18.10.2018 06:00:00 -2,6 -2,9 - - 0,0
18.10.2018 05:00:00 -2,0 -2,2 - - 0,0
18.10.2018 04:00:00 -2,1 -2,5 - - 0,0
18.10.2018 03:00:00 -0,8 -1,0 - - 0,0
18.10.2018 02:00:00 -1,2 -1,6 - - 0,0
18.10.2018 01:00:00 0,1 -0,4 - - 0,0
18.10.2018 00:00:00 1,6 0,3 - - 0,0
17.10.2018 23:00:00 3,9 1,6 - - 0,0
17.10.2018 22:00:00 6,7 2,9 - - 0,0
17.10.2018 21:00:00 5,8 3,2 - - 0,0

tt = Température de l'air
td = dewpoint
tt -20cm = Température de l'air -20cm
tt -100cm = Température de l'air -100cm
rr = Quantités de précipitations

stations d'obs. à proximité